Torna al catalogo

DELTA 1 DEB

AttivoSSO
NORAD 7168·DEBRIS·🇺🇸 United States

Lanciato Nov 6, 1973 da Vandenberg Space Force Base

Loading…

Prossimi Passaggi (prossime 24 ore)

TLE

AggiornatoSource: Space-Track

Epoca: Sep 14, 2026, 07:55 UTC

1 07168U 73086EG  26257.32986715  .00000310  00000-0  36201-2 0  9997
2 07168 102.3222  26.3084 0180331 335.3735  50.5332 12.11378946549271

Traccia DELTA 1 DEB in tempo reale con AllMySat

Download on the App Store